Radiation Dose at Monitoring Post of Fukushima Daini Nuclear Power Station
Date,Time,MP-1(microSv/h),MP-2(microSv/h),MP-3(microSv/h),MP-4(microSv/h),MP-5(microSv/h),MP-6(microSv/h),MP-7(microSv/h),Wind Direction,Wind Velocity(m/s),Rain
2019/07/13,00:00,0.184,0.165,0.274,0.257,0.264,0.137,0.086,north-northwest,5.5,No
2019/07/13,00:10,0.183,0.166,0.274,0.259,0.260,0.137,0.086,north-northwest,4.6,No
2019/07/13,00:20,0.183,0.165,0.271,0.259,0.264,0.137,0.086,north-northwest,4.1,No
2019/07/13,00:30,0.182,0.166,0.275,0.260,0.263,0.137,0.086,north,4.4,No
2019/07/13,00:40,0.181,0.165,0.272,0.258,0.262,0.136,0.086,north,3.4,No
2019/07/13,00:50,0.184,0.166,0.274,0.258,0.263,0.137,0.086,north-northwest,3.8,No
2019/07/13,01:00,0.183,0.166,0.274,0.260,0.261,0.137,0.086,north-northwest,4.8,No
2019/07/13,01:10,0.183,0.167,0.275,0.258,0.264,0.137,0.087,north,4.8,No
2019/07/13,01:20,0.183,0.166,0.275,0.261,0.262,0.136,0.086,north-northwest,5.0,No
2019/07/13,01:30,0.183,0.167,0.274,0.259,0.265,0.137,0.086,north-northwest,5.5,No
2019/07/13,01:40,0.183,0.166,0.274,0.259,0.263,0.137,0.087,north-northwest,5.5,No
2019/07/13,01:50,0.181,0.165,0.274,0.260,0.264,0.137,0.087,north-northwest,6.0,No
2019/07/13,02:00,0.183,0.166,0.276,0.259,0.263,0.138,0.087,north-northwest,6.4,Yes
2019/07/13,02:10,0.183,0.165,0.273,0.261,0.263,0.138,0.087,north-northwest,7.3,No
2019/07/13,02:20,0.184,0.167,0.277,0.258,0.265,0.139,0.087,north-northwest,7.1,No
2019/07/13,02:30,0.182,0.166,0.275,0.261,0.262,0.138,0.088,north-northwest,6.5,No
2019/07/13,02:40,0.185,0.167,0.276,0.259,0.265,0.139,0.087,north-northwest,6.2,No
2019/07/13,02:50,0.184,0.166,0.275,0.261,0.263,0.138,0.087,north-northwest,5.9,No
2019/07/13,03:00,0.183,0.167,0.275,0.260,0.264,0.138,0.088,northwest,6.3,No
2019/07/13,03:10,0.183,0.165,0.276,0.259,0.264,0.139,0.088,north-northwest,6.3,No
2019/07/13,03:20,0.182,0.167,0.275,0.261,0.262,0.138,0.088,north-northwest,5.1,No
2019/07/13,03:30,0.186,0.166,0.277,0.259,0.266,0.139,0.088,north-northwest,5.0,No
2019/07/13,03:40,0.185,0.166,0.273,0.262,0.263,0.138,0.088,northwest,3.6,No
2019/07/13,03:50,0.184,0.168,0.276,0.261,0.265,0.138,0.089,north-northwest,3.6,No
2019/07/13,04:00,0.185,0.166,0.275,0.260,0.265,0.139,0.088,north-northwest,4.1,No
2019/07/13,04:10,0.183,0.167,0.276,0.261,0.263,0.138,0.088,north-northwest,3.7,No
2019/07/13,04:20,0.185,0.166,0.276,0.258,0.266,0.139,0.089,north-northwest,4.0,No
2019/07/13,04:30,0.183,0.167,0.276,0.262,0.263,0.139,0.088,north,3.5,No
2019/07/13,04:40,0.184,0.167,0.277,0.260,0.265,0.137,0.088,north,3.6,No
2019/07/13,04:50,0.184,0.167,0.273,0.259,0.264,0.139,0.087,north,4.6,No
2019/07/13,05:00,0.183,0.168,0.277,0.261,0.264,0.138,0.088,north-northwest,3.7,No
2019/07/13,05:10,0.186,0.166,0.276,0.259,0.266,0.139,0.087,north-northwest,3.1,No
2019/07/13,05:20,0.182,0.167,0.275,0.262,0.263,0.138,0.087,north-northwest,3.1,No
2019/07/13,05:30,0.184,0.166,0.277,0.260,0.266,0.138,0.087,north-northwest,2.4,No
2019/07/13,05:40,0.184,0.168,0.275,0.261,0.264,0.139,0.088,north-northwest,1.6,No
2019/07/13,05:50,0.182,0.168,0.277,0.260,0.263,0.138,0.088,north,2.2,No
2019/07/13,06:00,0.185,0.167,0.275,0.260,0.267,0.139,0.087,north,1.3,No
2019/07/13,06:10,0.183,0.166,0.274,0.261,0.261,0.139,0.088,north,1.1,No
2019/07/13,06:20,0.183,0.166,0.275,0.259,0.265,0.138,0.088,north,1.0,No
2019/07/13,06:30,0.184,0.168,0.273,0.260,0.264,0.139,0.087,-,CALM,No
2019/07/13,06:40,0.183,0.166,0.277,0.261,0.262,0.137,0.087,northwest,1.1,No
2019/07/13,06:50,0.184,0.168,0.275,0.259,0.265,0.138,0.087,west-northwest,1.7,No
2019/07/13,07:00,0.184,0.166,0.275,0.261,0.264,0.139,0.087,west-northwest,1.3,No
2019/07/13,07:10,0.184,0.165,0.276,0.260,0.263,0.138,0.087,-,CALM,No
2019/07/13,07:20,0.185,0.167,0.273,0.259,0.265,0.137,0.087,northeast,2.2,No
2019/07/13,07:30,0.182,0.166,0.275,0.261,0.263,0.138,0.087,north-northeast,1.4,No
2019/07/13,07:40,0.183,0.167,0.276,0.258,0.261,0.137,0.087,north-northeast,3.1,No
2019/07/13,07:50,0.184,0.165,0.270,0.259,0.263,0.137,0.086,north-northeast,4.2,No
2019/07/13,08:00,0.182,0.165,0.276,0.260,0.264,0.138,0.087,north,5.0,No
2019/07/13,08:10,0.184,0.166,0.273,0.257,0.262,0.137,0.087,north,4.9,No
2019/07/13,08:20,0.182,0.165,0.274,0.261,0.264,0.137,0.086,north,4.5,No
2019/07/13,08:30,0.183,0.166,0.274,0.259,0.264,0.138,0.087,north,4.0,No
2019/07/13,08:40,0.184,0.165,0.272,0.258,0.261,0.137,0.086,north,3.3,No
2019/07/13,08:50,0.182,0.164,0.276,0.261,0.262,0.137,0.086,north,2.9,No
2019/07/13,09:00,0.183,0.166,0.275,0.258,0.263,0.137,0.086,north-northeast,3.6,No
2019/07/13,09:10,0.183,0.167,0.272,0.256,0.262,0.138,0.086,north,2.8,No
2019/07/13,09:20,0.182,0.165,0.273,0.257,0.260,0.136,0.086,north,1.9,No
2019/07/13,09:30,0.182,0.165,0.275,0.260,0.260,0.137,0.085,north-northeast,2.0,No
2019/07/13,09:40,0.184,0.164,0.275,0.259,0.259,0.138,0.085,north-northeast,1.9,No
2019/07/13,09:50,0.183,0.167,0.272,0.258,0.263,0.138,0.086,northeast,1.4,No
2019/07/13,10:00,0.181,0.166,0.275,0.257,0.264,0.137,0.087,northeast,2.2,No
2019/07/13,10:10,0.180,0.165,0.276,0.257,0.264,0.136,0.086,east-northeast,1.7,No
2019/07/13,10:20,0.181,0.165,0.274,0.257,0.262,0.137,0.086,northeast,1.7,No
2019/07/13,10:30,0.183,0.164,0.273,0.256,0.262,0.137,0.086,northeast,2.0,No
2019/07/13,10:40,0.183,0.164,0.271,0.257,0.260,0.136,0.086,north-northeast,1.5,No
2019/07/13,10:50,0.182,0.165,0.273,0.257,0.261,0.137,0.085,north-northeast,1.9,No
2019/07/13,11:00,0.182,0.166,0.277,0.258,0.261,0.136,0.085,north,1.4,No
2019/07/13,11:10,0.180,0.166,0.275,0.258,0.262,0.137,0.086,northeast,1.7,No
2019/07/13,11:20,0.181,0.166,0.274,0.259,0.261,0.137,0.086,north-northeast,1.9,No
2019/07/13,11:30,0.182,0.164,0.275,0.257,0.263,0.137,0.086,north-northeast,2.6,No
2019/07/13,11:40,0.185,0.165,0.272,0.259,0.262,0.137,0.086,north-northeast,2.3,No
2019/07/13,11:50,0.184,0.164,0.273,0.259,0.263,0.137,0.086,northeast,2.5,No
2019/07/13,12:00,0.184,0.165,0.272,0.259,0.262,0.138,0.085,north-northeast,3.2,No
2019/07/13,12:10,0.182,0.164,0.272,0.259,0.263,0.137,0.085,north-northeast,2.6,No
2019/07/13,12:20,0.182,0.165,0.272,0.259,0.263,0.138,0.085,north-northeast,2.5,No
2019/07/13,12:30,0.182,0.164,0.273,0.259,0.263,0.138,0.085,east-northeast,3.0,No
2019/07/13,12:40,0.182,0.165,0.274,0.259,0.263,0.138,0.085,north-northeast,3.5,No
2019/07/13,12:50,0.182,0.166,0.273,0.260,0.262,0.138,0.086,northeast,3.4,No
2019/07/13,13:00,0.182,0.166,0.275,0.260,0.263,0.137,0.086,north-northeast,3.8,No
2019/07/13,13:10,0.182,0.165,0.272,0.260,0.263,0.138,0.087,north-northeast,3.7,No
2019/07/13,13:20,0.182,0.165,0.275,0.259,0.263,0.138,0.087,north-northeast,4.2,No
2019/07/13,13:30,0.180,0.166,0.274,0.258,0.262,0.139,0.088,northeast,3.7,No
2019/07/13,13:40,0.182,0.166,0.274,0.259,0.262,0.138,0.086,east-northeast,3.2,No
2019/07/13,13:50,0.183,0.166,0.273,0.258,0.262,0.138,0.086,east-northeast,3.1,No
2019/07/13,14:00,0.184,0.168,0.273,0.258,0.262,0.138,0.086,east-northeast,3.7,No
2019/07/13,14:10,0.184,0.168,0.277,0.259,0.262,0.139,0.085,east-northeast,3.3,No
2019/07/13,14:20,0.184,0.166,0.278,0.264,0.262,0.140,0.086,east-northeast,3.7,No
2019/07/13,14:30,0.182,0.165,0.277,0.262,0.262,0.139,0.086,east,3.8,No
2019/07/13,14:40,0.182,0.166,0.274,0.260,0.262,0.138,0.086,east,3.2,No
2019/07/13,14:50,0.181,0.167,0.274,0.261,0.264,0.138,0.087,east,3.2,No
2019/07/13,15:00,0.182,0.167,0.274,0.259,0.264,0.138,0.087,east,3.1,No
2019/07/13,15:10,0.182,0.166,0.275,0.259,0.265,0.138,0.087,east-southeast,3.3,No
2019/07/13,15:20,0.182,0.166,0.275,0.264,0.262,0.138,0.086,east-southeast,3.3,No
2019/07/13,15:30,0.183,0.165,0.275,0.263,0.264,0.139,0.086,east-southeast,3.3,No
2019/07/13,15:40,0.183,0.166,0.274,0.261,0.263,0.138,0.085,east-southeast,3.5,No
2019/07/13,15:50,0.182,0.167,0.274,0.258,0.263,0.139,0.086,east-southeast,2.9,No
2019/07/13,16:00,0.184,0.167,0.279,0.261,0.262,0.139,0.087,east-southeast,2.9,No
2019/07/13,16:10,0.185,0.167,0.279,0.263,0.261,0.138,0.087,southeast,2.4,No
2019/07/13,16:20,0.184,0.167,0.277,0.262,0.265,0.138,0.086,south-southeast,2.1,No
2019/07/13,16:30,0.182,0.166,0.274,0.261,0.267,0.138,0.086,south-southeast,2.7,No
2019/07/13,16:40,0.183,0.168,0.278,0.260,0.266,0.138,0.086,south-southeast,2.3,No
2019/07/13,16:50,0.184,0.167,0.279,0.264,0.264,0.139,0.086,south,1.8,No
2019/07/13,17:00,0.184,0.166,0.275,0.262,0.262,0.138,0.087,south,2.1,No
2019/07/13,17:10,0.183,0.166,0.276,0.259,0.267,0.138,0.086,south,2.2,No
2019/07/13,17:20,0.183,0.168,0.278,0.264,0.265,0.139,0.087,south-southeast,2.0,No
2019/07/13,17:30,0.185,0.168,0.276,0.263,0.263,0.138,0.087,south-southeast,2.9,No
2019/07/13,17:40,0.184,0.165,0.275,0.261,0.265,0.137,0.087,south-southeast,3.4,No
2019/07/13,17:50,0.182,0.168,0.278,0.263,0.267,0.138,0.087,south,3.1,No
2019/07/13,18:00,0.185,0.167,0.277,0.263,0.263,0.138,0.087,south,2.7,No
2019/07/13,18:10,0.184,0.166,0.275,0.261,0.262,0.138,0.086,south-southeast,3.3,No
2019/07/13,18:20,0.183,0.167,0.278,0.261,0.266,0.138,0.086,south-southeast,2.4,No
2019/07/13,18:30,0.184,0.168,0.277,0.264,0.265,0.139,0.087,south-southeast,3.0,No
2019/07/13,18:40,0.185,0.167,0.274,0.262,0.264,0.138,0.087,south,4.4,No
2019/07/13,18:50,0.183,0.167,0.278,0.261,0.266,0.138,0.087,south,4.8,No
2019/07/13,19:00,0.184,0.167,0.278,0.263,0.267,0.139,0.088,south,4.1,No
2019/07/13,19:10,0.185,0.168,0.276,0.261,0.263,0.138,0.087,south,4.1,No
2019/07/13,19:20,0.183,0.168,0.280,0.260,0.266,0.138,0.086,south,3.8,No
2019/07/13,19:30,0.185,0.166,0.277,0.264,0.265,0.138,0.088,south,4.2,No
2019/07/13,19:40,0.184,0.167,0.276,0.262,0.263,0.138,0.087,south,3.6,No
2019/07/13,19:50,0.182,0.168,0.278,0.261,0.265,0.139,0.086,south,3.4,No
2019/07/13,20:00,0.185,0.166,0.277,0.264,0.266,0.139,0.087,south,3.3,No
2019/07/13,20:10,0.185,0.168,0.277,0.261,0.262,0.138,0.086,south,4.3,No
2019/07/13,20:20,0.183,0.167,0.278,0.261,0.265,0.139,0.087,south,5.3,No
2019/07/13,20:30,0.184,0.167,0.276,0.264,0.267,0.138,0.087,south,4.8,No
2019/07/13,20:40,0.184,0.167,0.278,0.261,0.263,0.139,0.086,south,6.2,No
2019/07/13,20:50,0.185,0.165,0.278,0.261,0.267,0.139,0.086,south,6.2,No
2019/07/13,21:00,0.184,0.167,0.276,0.264,0.265,0.138,0.087,south,7.3,No
2019/07/13,21:10,0.184,0.168,0.279,0.261,0.262,0.138,0.087,south,7.6,No
2019/07/13,21:20,0.183,0.167,0.277,0.261,0.266,0.140,0.087,south,7.3,No
2019/07/13,21:30,0.184,0.168,0.275,0.264,0.266,0.138,0.087,south,6.5,No
2019/07/13,21:40,0.185,0.167,0.279,0.262,0.263,0.138,0.087,south,6.2,No
2019/07/13,21:50,0.183,0.167,0.277,0.261,0.267,0.139,0.086,south,5.7,No
2019/07/13,22:00,0.184,0.167,0.277,0.264,0.265,0.138,0.087,south,4.9,No
2019/07/13,22:10,0.185,0.166,0.278,0.261,0.263,0.138,0.087,south,4.0,No
2019/07/13,22:20,0.184,0.169,0.276,0.264,0.267,0.139,0.087,south,2.9,No
2019/07/13,22:30,0.184,0.166,0.276,0.264,0.267,0.140,0.088,south,3.4,No
2019/07/13,22:40,0.184,0.167,0.279,0.261,0.263,0.139,0.086,south,1.7,No
2019/07/13,22:50,0.184,0.168,0.277,0.263,0.266,0.139,0.087,south,1.1,No
2019/07/13,23:00,0.186,0.168,0.279,0.264,0.266,0.138,0.088,south,1.7,No
2019/07/13,23:10,0.184,0.168,0.279,0.263,0.263,0.139,0.088,south,1.2,No
2019/07/13,23:20,0.185,0.168,0.277,0.264,0.267,0.140,0.088,south,1.3,No
2019/07/13,23:30,0.187,0.168,0.280,0.261,0.265,0.139,0.087,south,1.6,No
2019/07/13,23:40,0.184,0.168,0.277,0.262,0.265,0.139,0.088,south,1.7,No
2019/07/13,23:50,0.185,0.168,0.277,0.263,0.267,0.139,0.089,south,1.8,No
